Location: Czu?�w
(50.1404°N, 18.9919°E)
Time: 02:25:38
(UTC+00:00)

Aureole 3 Rocket - Pass Details

Date: 27 October 2020
Orbit: 399 x 1739 km, 82.5° (Epoch: 27 November)

Event Time Altitude Azimuth Distance (km) Brightness Sun altitude
Rises 16:19:45 0° 163° (SSE) 2,639 6.2 -8.7°
Reaches altitude 10° 16:21:43 10° 155° (SSE) 1,879 5.4 -9.0°
Maximum altitude 16:25:31 38° 87° (E) 1,067 3.8 -9.6°
Drops below altitude 10° 16:30:39 10° 21° (NNE) 2,557 5.9 -10.5°
Sets 16:33:42 0° 15° (NNE) 3,745 6.8 -10.9°
